NOAA 16 DEB

Satellite information

Favourite Embed

Satellite Type and Status

DEBRISIN ORBIT

Key statistics

Satellite NOAA 16 DEB at a glance.

Uptime

9054

Days in orbit

Revolutions

≈ 14.3

Per day

Orbit

SSO

Sun Synchronous Orbit

Inclination

98.7

Latest

Satellite identification and parameters

Extended collection of information and parameters for NOAA 16 DEB.

Object identification

Identified? True

Debris? True

Object name: NOAA 16 DEB

International designator: 2000-055HQ

Object number (NORAD): 41347

Object ID (CCSDS): 41347

Country: UNITED STATES OF AMERICA (US)

Current information (Y/N): Y

RCS size: SMALL

Orbital parameters

Period: 100.656 minutes

Inclination: 98.7185 deg

SMA: 7167.824 km

Apoapsis: 801.651 km

Periapsis: 777.726 km

RAAN: 256.8763 deg

Eccentricy: 0.0016689

Argument of periapsis: 298.8966 deg

Mean anomaly: 61.0541 deg

Mean motion: 14.30611814 rev/day

Mean motion (dot): 0.00004064 rev/day2

B* drag term: 0.0015706 1/REarth

Two-line elements (TLE)

Creation date: July 5, 2025, 5:45 p.m.

Reference frame: TEME

Reference center: EARTH

Epoch: July 5, 2025, 1:17 a.m. UTC

TLE line 0: 0 NOAA 16 DEB

TLE line 1: 1 41347U 00055HQ 25186.05406448 .00004064 00000-0 15706-2 0 9997

TLE line 2: 2 41347 98.7185 256.8763 0016689 298.8966 61.0541 14.30611814487515

Live tracking on map

Real-time ground track for satellite NOAA 16 DEB.

In-orbit conjunctions

A list of the most updated potential collisions computed for object NOAA 16 DEB.

Target Orbit TCA Probability of collision Miss distance Type
IRIDIUM 33 DEB LEO 2025-05-07 07:27:16 0.0001145688 318.0 (m) DEBRIS
FEDSAT SSO 2025-01-18 16:48:28 0.000113056 58.0 (m) PAYLOAD

Associated space launch

The NOAA K, L and M POES satellites begin the fifth generation of improved environmental monitoring in support of NOAA missions. The instrument payload has significant improvements and additions/deletions. The instrument changes have effected the spacecraft subsystems and data formats.

NOAA 16 DEB was lifted into orbit during the mission ‘Titan II SLV | NOAA 16’, on board a Titan II SLV space rocket.

The launch took place on Sept. 21, 2000, 10:22 a.m. from Space Launch Complex 4W.

For more information about the launch, click the button.

Launch to space Titan II SLV | NOAA 16
Titan II SLV | NOAA 16

Agency: N/A

Status: Launch Successful

Launch date: Sept. 21, 2000, 10:22 a.m. UTC

Rocket: Titan II SLV

Launch pad: Space Launch Complex 4W

Location: Vandenberg SFB, CA, USA

...

Latest news about this satellite

There are no fresh news available about this satellite. Check back as we update our databases every day.


Newsletter sign-up

Weekly statistics, charts and insights to help you stay on top of the space industry.